Private Wetterstation Sandau
Wetterdaten: Dienstag, 24.04.2012
Datum Zeit Temp. A. Feuchte A. Luftdruck Regen Wind Richtung Richtung Taupunkt Windchill
24.04.2012 00:01 8,1 C 62 % 1002,9 hPa 0,0 l/m 5,0 km/h (1 Bft) O 90 1,3 C 7,6 C
24.04.2012 00:06 7,9 C 62 % 1002,9 hPa 0,0 l/m 7,9 km/h (2 Bft) O 90 1,1 C 6,6 C
24.04.2012 00:11 7,8 C 62 % 1002,9 hPa 0,0 l/m 4,7 km/h (1 Bft) O 90 1,0 C 7,4 C
24.04.2012 00:16 7,8 C 63 % 1002,8 hPa 0,0 l/m 7,6 km/h (2 Bft) SO 135 1,2 C 6,5 C
24.04.2012 00:21 7,6 C 63 % 1002,9 hPa 0,0 l/m 6,5 km/h (2 Bft) O-SO 112 1,0 C 6,6 C
24.04.2012 00:26 7,6 C 64 % 1003,0 hPa 0,0 l/m 4,0 km/h (1 Bft) O-NO 67 1,2 C 7,6 C
24.04.2012 00:31 7,5 C 64 % 1002,8 hPa 0,0 l/m 6,1 km/h (2 Bft) O 90 1,1 C 6,6 C
24.04.2012 00:36 7,4 C 65 % 1002,8 hPa 0,0 l/m 4,3 km/h (1 Bft) O 90 1,3 C 7,4 C
24.04.2012 00:41 7,3 C 65 % 1002,8 hPa 0,0 l/m 6,5 km/h (2 Bft) O 90 1,2 C 6,2 C
24.04.2012 00:46 7,3 C 65 % 1002,7 hPa 0,0 l/m 8,6 km/h (2 Bft) O-SO 112 1,2 C 5,7 C
24.04.2012 00:51 7,2 C 65 % 1002,7 hPa 0,0 l/m 6,8 km/h (2 Bft) SO 135 1,1 C 6,0 C
24.04.2012 00:56 7,2 C 65 % 1002,5 hPa 0,0 l/m 6,8 km/h (2 Bft) O 90 1,1 C 6,0 C
24.04.2012 01:01 7,1 C 65 % 1002,6 hPa 0,0 l/m 10,1 km/h (2 Bft) O 90 1,0 C 5,1 C
24.04.2012 01:06 7,1 C 66 % 1002,6 hPa 0,0 l/m 6,5 km/h (2 Bft) SO 135 1,2 C 6,0 C
24.04.2012 01:11 7,0 C 66 % 1002,4 hPa 0,0 l/m 6,5 km/h (2 Bft) O-SO 112 1,1 C 5,9 C
24.04.2012 01:16 7,0 C 66 % 1002,5 hPa 0,0 l/m 7,2 km/h (2 Bft) O 90 1,1 C 5,7 C
24.04.2012 01:21 6,9 C 67 % 1002,6 hPa 0,0 l/m 2,9 km/h (1 Bft) O-NO 67 1,2 C 6,9 C
24.04.2012 01:26 6,9 C 67 % 1002,6 hPa 0,0 l/m 5,0 km/h (1 Bft) O 90 1,2 C 6,2 C
24.04.2012 01:31 6,8 C 67 % 1002,4 hPa 0,0 l/m 6,1 km/h (2 Bft) O 90 1,1 C 5,8 C
24.04.2012 01:36 6,6 C 67 % 1002,4 hPa 0,0 l/m 2,5 km/h (1 Bft) O-NO 67 0,9 C 6,6 C
24.04.2012 01:41 6,6 C 68 % 1002,3 hPa 0,0 l/m 5,4 km/h (1 Bft) O 90 1,1 C 5,8 C
24.04.2012 01:46 6,6 C 68 % 1002,3 hPa 0,0 l/m 8,3 km/h (2 Bft) O 90 1,1 C 4,9 C
24.04.2012 01:51 6,5 C 69 % 1002,3 hPa 0,0 l/m 4,7 km/h (1 Bft) O-SO 112 1,2 C 5,9 C
24.04.2012 01:56 6,5 C 69 % 1002,2 hPa 0,0 l/m 3,6 km/h (1 Bft) O-SO 112 1,2 C 6,5 C
24.04.2012 02:01 6,4 C 69 % 1002,2 hPa 0,0 l/m 5,8 km/h (2 Bft) O 90 1,1 C 5,4 C
24.04.2012 02:06 6,4 C 70 % 1002,1 hPa 0,0 l/m 7,6 km/h (2 Bft) SO 135 1,3 C 4,9 C
24.04.2012 02:11 6,4 C 70 % 1002,0 hPa 0,0 l/m 5,4 km/h (1 Bft) O-SO 112 1,3 C 5,5 C
24.04.2012 02:16 6,4 C 70 % 1001,8 hPa 0,0 l/m 6,8 km/h (2 Bft) O-SO 112 1,3 C 5,1 C
24.04.2012 02:21 6,3 C 70 % 1001,7 hPa 0,0 l/m 6,5 km/h (2 Bft) O-NO 67 1,2 C 5,1 C
24.04.2012 02:26 6,3 C 71 % 1001,8 hPa 0,0 l/m 6,1 km/h (2 Bft) O 90 1,4 C 5,2 C
24.04.2012 02:31 6,3 C 71 % 1001,9 hPa 0,0 l/m 4,0 km/h (1 Bft) O-NO 67 1,4 C 6,3 C
24.04.2012 02:36 6,3 C 71 % 1001,7 hPa 0,0 l/m 5,0 km/h (1 Bft) O-NO 67 1,4 C 5,6 C
24.04.2012 02:41 6,3 C 71 % 1001,7 hPa 0,0 l/m 3,6 km/h (1 Bft) O 90 1,4 C 6,3 C
24.04.2012 02:46 6,3 C 71 % 1001,6 hPa 0,0 l/m 4,0 km/h (1 Bft) O 90 1,4 C 6,3 C
24.04.2012 02:51 6,3 C 72 % 1001,6 hPa 0,0 l/m 4,3 km/h (1 Bft) O-NO 67 1,6 C 6,3 C
24.04.2012 02:56 6,3 C 72 % 1001,5 hPa 0,0 l/m 2,5 km/h (1 Bft) O-SO 112 1,6 C 6,3 C
24.04.2012 03:01 6,3 C 72 % 1001,5 hPa 0,0 l/m 0,0 km/h (0 Bft) O 90 1,6 C 6,3 C
24.04.2012 03:06 6,2 C 72 % 1001,5 hPa 0,0 l/m 2,5 km/h (1 Bft) O 90 1,5 C 6,2 C
24.04.2012 03:11 6,1 C 72 % 1001,5 hPa 0,0 l/m 2,2 km/h (1 Bft) O-SO 112 1,4 C 6,1 C
24.04.2012 03:16 6,2 C 72 % 1001,4 hPa 0,0 l/m 5,0 km/h (1 Bft) O 90 1,5 C 5,4 C
24.04.2012 03:21 6,1 C 73 % 1001,4 hPa 0,0 l/m 2,5 km/h (1 Bft) O-SO 112 1,6 C 6,1 C
24.04.2012 03:26 6,1 C 73 % 1001,3 hPa 0,0 l/m 5,4 km/h (1 Bft) O 90 1,6 C 5,2 C
24.04.2012 03:31 6,1 C 73 % 1001,2 hPa 0,0 l/m 4,0 km/h (1 Bft) O 90 1,6 C 6,1 C
24.04.2012 03:36 6,1 C 74 % 1001,2 hPa 0,0 l/m 3,6 km/h (1 Bft) O-SO 112 1,8 C 6,1 C
24.04.2012 03:41 6,1 C 74 % 1001,2 hPa 0,0 l/m 5,4 km/h (1 Bft) O 90 1,8 C 5,2 C
24.04.2012 03:46 6,1 C 74 % 1001,1 hPa 0,0 l/m 5,0 km/h (1 Bft) O 90 1,8 C 5,3 C
24.04.2012 03:51 6,1 C 74 % 1001,0 hPa 0,0 l/m 3,2 km/h (1 Bft) O 90 1,8 C 6,1 C
24.04.2012 03:56 6,1 C 74 % 1000,9 hPa 0,0 l/m 3,6 km/h (1 Bft) O-NO 67 1,8 C 6,1 C
24.04.2012 04:01 6,1 C 75 % 1000,7 hPa 0,0 l/m 0,0 km/h (0 Bft) O 90 2,0 C 6,1 C
24.04.2012 04:06 6,3 C 75 % 1000,7 hPa 0,0 l/m 4,3 km/h (1 Bft) O 90 2,2 C 6,3 C
24.04.2012 04:11 6,3 C 75 % 1000,7 hPa 0,0 l/m 3,6 km/h (1 Bft) O-NO 67 2,2 C 6,3 C
24.04.2012 04:16 6,4 C 75 % 1000,8 hPa 0,0 l/m 0,0 km/h (0 Bft) O 90 2,3 C 6,4 C
24.04.2012 04:21 6,5 C 75 % 1000,8 hPa 0,0 l/m 2,2 km/h (1 Bft) S-SO 157 2,4 C 6,5 C
24.04.2012 04:26 6,7 C 75 % 1000,9 hPa 0,0 l/m 3,6 km/h (1 Bft) W-SW 247 2,6 C 6,7 C
24.04.2012 04:31 6,8 C 75 % 1000,9 hPa 0,0 l/m 0,0 km/h (0 Bft) S-SW 202 2,7 C 6,8 C
24.04.2012 04:36 6,9 C 75 % 1001,2 hPa 0,0 l/m 0,0 km/h (0 Bft) S 180 2,8 C 6,9 C
24.04.2012 04:41 6,8 C 75 % 1001,2 hPa 0,0 l/m 3,2 km/h (1 Bft) S 180 2,7 C 6,8 C
24.04.2012 04:46 6,8 C 75 % 1001,1 hPa 0,0 l/m 0,0 km/h (0 Bft) SO 135 2,7 C 6,8 C
24.04.2012 04:51 6,8 C 75 % 1001,0 hPa 0,0 l/m 3,2 km/h (1 Bft) O-NO 67 2,7 C 6,8 C
24.04.2012 04:56 6,7 C 75 % 1001,0 hPa 0,0 l/m 0,0 km/h (0 Bft) O-NO 67 2,6 C 6,7 C
24.04.2012 05:01 6,8 C 75 % 1000,9 hPa 0,0 l/m 1,8 km/h (1 Bft) O-NO 67 2,7 C 6,8 C
24.04.2012 05:06 6,8 C 75 % 1000,8 hPa 0,0 l/m 2,9 km/h (1 Bft) O 90 2,7 C 6,8 C
24.04.2012 05:11 6,8 C 75 % 1000,7 hPa 0,0 l/m 3,2 km/h (1 Bft) O-NO 67 2,7 C 6,8 C
24.04.2012 05:16 6,8 C 75 % 1000,7 hPa 0,0 l/m 2,5 km/h (1 Bft) O-SO 112 2,7 C 6,8 C
24.04.2012 05:21 6,9 C 75 % 1000,8 hPa 0,0 l/m 1,1 km/h (1 Bft) O 90 2,8 C 6,9 C
24.04.2012 05:26 6,9 C 75 % 1000,5 hPa 0,0 l/m 5,4 km/h (1 Bft) O-NO 67 2,8 C 6,1 C
24.04.2012 05:31 6,9 C 75 % 1000,4 hPa 0,0 l/m 5,0 km/h (1 Bft) O-NO 67 2,8 C 6,2 C
24.04.2012 05:36 6,8 C 76 % 1000,5 hPa 0,0 l/m 4,0 km/h (1 Bft) O 90 2,9 C 6,8 C
24.04.2012 05:41 6,8 C 76 % 1000,4 hPa 0,0 l/m 4,0 km/h (1 Bft) O-NO 67 2,9 C 6,8 C
24.04.2012 05:46 6,8 C 76 % 1000,5 hPa 0,0 l/m 4,0 km/h (1 Bft) O 90 2,9 C 6,8 C
24.04.2012 05:51 6,8 C 76 % 1000,4 hPa 0,0 l/m 8,3 km/h (2 Bft) O-NO 67 2,9 C 5,2 C
24.04.2012 05:56 6,7 C 77 % 1000,2 hPa 0,0 l/m 6,5 km/h (2 Bft) O 90 3,0 C 5,5 C
24.04.2012 06:01 6,6 C 77 % 1000,4 hPa 0,0 l/m 4,3 km/h (1 Bft) O-NO 67 2,9 C 6,6 C
24.04.2012 06:06 6,6 C 77 % 1000,1 hPa 0,0 l/m 9,4 km/h (2 Bft) O-NO 67 2,9 C 4,7 C
24.04.2012 06:11 6,6 C 78 % 1000,0 hPa 0,0 l/m 3,2 km/h (1 Bft) O 90 3,0 C 6,6 C
24.04.2012 06:16 6,6 C 78 % 999,9 hPa 0,0 l/m 1,8 km/h (1 Bft) O 90 3,0 C 6,6 C
24.04.2012 06:21 6,6 C 78 % 999,9 hPa 0,0 l/m 11,2 km/h (2 Bft) O-NO 67 3,0 C 4,3 C
24.04.2012 06:26 6,6 C 78 % 999,8 hPa 0,0 l/m 5,8 km/h (2 Bft) O-SO 112 3,0 C 5,6 C
24.04.2012 06:31 6,6 C 78 % 1000,1 hPa 0,0 l/m 9,7 km/h (2 Bft) O 90 3,0 C 4,6 C
24.04.2012 06:36 6,6 C 78 % 1000,0 hPa 0,0 l/m 11,2 km/h (2 Bft) O 90 3,0 C 4,3 C
24.04.2012 06:41 6,6 C 78 % 999,9 hPa 0,0 l/m 9,4 km/h (2 Bft) O-NO 67 3,0 C 4,7 C
24.04.2012 06:46 6,6 C 78 % 999,9 hPa 0,0 l/m 7,6 km/h (2 Bft) O 90 3,0 C 5,1 C
24.04.2012 06:51 6,6 C 78 % 999,8 hPa 0,0 l/m 10,1 km/h (2 Bft) O-NO 67 3,0 C 4,5 C
24.04.2012 06:56 6,6 C 78 % 999,6 hPa 0,0 l/m 12,6 km/h (3 Bft) O-NO 67 3,0 C 4,1 C
24.04.2012 07:01 6,8 C 78 % 999,7 hPa 0,0 l/m 6,1 km/h (2 Bft) O-NO 67 3,2 C 5,8 C
24.04.2012 07:06 6,9 C 78 % 999,7 hPa 0,0 l/m 7,6 km/h (2 Bft) O-NO 67 3,3 C 5,5 C
24.04.2012 07:11 7,0 C 78 % 999,7 hPa 0,0 l/m 8,3 km/h (2 Bft) O-NO 67 3,4 C 5,4 C
24.04.2012 07:16 7,1 C 77 % 999,7 hPa 0,0 l/m 8,3 km/h (2 Bft) O-NO 67 3,3 C 5,5 C
24.04.2012 07:21 7,1 C 77 % 999,7 hPa 0,0 l/m 9,7 km/h (2 Bft) O-NO 67 3,3 C 5,2 C
24.04.2012 07:26 7,2 C 77 % 999,4 hPa 0,0 l/m 7,6 km/h (2 Bft) O 90 3,4 C 5,8 C
24.04.2012 07:31 7,2 C 77 % 999,4 hPa 0,0 l/m 8,3 km/h (2 Bft) O-SO 112 3,4 C 5,6 C
24.04.2012 07:36 7,2 C 77 % 999,3 hPa 0,0 l/m 10,4 km/h (2 Bft) O 90 3,4 C 5,2 C
24.04.2012 07:41 7,3 C 77 % 999,3 hPa 0,0 l/m 10,1 km/h (2 Bft) O-NO 67 3,5 C 5,4 C
24.04.2012 07:46 7,3 C 77 % 999,4 hPa 0,0 l/m 5,4 km/h (1 Bft) O 90 3,5 C 6,6 C
24.04.2012 07:51 7,4 C 77 % 999,4 hPa 0,0 l/m 6,1 km/h (2 Bft) O-NO 67 3,6 C 6,5 C
24.04.2012 07:56 7,5 C 76 % 999,7 hPa 0,0 l/m 6,1 km/h (2 Bft) S-SO 157 3,5 C 6,6 C
24.04.2012 08:01 7,6 C 76 % 999,4 hPa 0,0 l/m 8,3 km/h (2 Bft) SO 135 3,6 C 6,1 C
24.04.2012 08:06 7,6 C 76 % 999,5 hPa 0,0 l/m 0,0 km/h (0 Bft) SO 135 3,6 C 7,6 C
24.04.2012 08:11 7,6 C 76 % 999,4 hPa 0,0 l/m 5,8 km/h (2 Bft) O 90 3,6 C 6,8 C
24.04.2012 08:16 7,6 C 76 % 999,4 hPa 0,0 l/m 2,2 km/h (1 Bft) SO 135 3,6 C 7,6 C
24.04.2012 08:21 7,6 C 76 % 999,6 hPa 0,0 l/m 5,8 km/h (2 Bft) O-SO 112 3,6 C 6,8 C
24.04.2012 08:26 7,7 C 76 % 999,3 hPa 0,0 l/m 5,0 km/h (1 Bft) O-NO 67 3,7 C 7,1 C
24.04.2012 08:31 7,8 C 76 % 999,4 hPa 0,0 l/m 6,1 km/h (2 Bft) SO 135 3,8 C 6,9 C
24.04.2012 08:36 7,8 C 77 % 999,3 hPa 0,0 l/m 9,7 km/h (2 Bft) O-NO 67 4,0 C 6,1 C
24.04.2012 08:41 7,9 C 77 % 999,3 hPa 0,0 l/m 4,3 km/h (1 Bft) O-NO 67 4,1 C 7,9 C
24.04.2012 08:46 8,1 C 77 % 999,3 hPa 0,0 l/m 5,4 km/h (1 Bft) O-SO 112 4,3 C 7,5 C
24.04.2012 08:51 8,1 C 76 % 998,9 hPa 0,0 l/m 6,5 km/h (2 Bft) O-SO 112 4,1 C 7,1 C
24.04.2012 08:56 8,3 C 76 % 998,9 hPa 0,0 l/m 6,5 km/h (2 Bft) O 90 4,3 C 7,4 C
24.04.2012 09:01 8,5 C 75 % 999,0 hPa 0,0 l/m 5,8 km/h (2 Bft) O 90 4,3 C 7,8 C
24.04.2012 09:06 8,8 C 75 % 998,7 hPa 0,0 l/m 14,4 km/h (3 Bft) O-SO 112 4,6 C 6,5 C
24.04.2012 09:11 8,9 C 75 % 998,9 hPa 0,0 l/m 7,2 km/h (2 Bft) O-SO 112 4,7 C 7,9 C
24.04.2012 09:16 9,3 C 74 % 999,0 hPa 0,0 l/m 6,1 km/h (2 Bft) SO 135 4,9 C 8,6 C
24.04.2012 09:21 9,8 C 74 % 998,7 hPa 0,0 l/m 6,8 km/h (2 Bft) S-SO 157 5,4 C 9,0 C
24.04.2012 09:26 10,1 C 72 % 998,7 hPa 0,0 l/m 6,8 km/h (2 Bft) O 90 5,3 C 10,1 C
24.04.2012 09:31 10,6 C 70 % 999,0 hPa 0,0 l/m 9,4 km/h (2 Bft) O-SO 112 5,4 C 10,6 C
24.04.2012 09:36 10,9 C 69 % 998,8 hPa 0,0 l/m 4,0 km/h (1 Bft) O 90 5,4 C 10,9 C
24.04.2012 09:41 11,2 C 68 % 998,8 hPa 0,0 l/m 6,5 km/h (2 Bft) O 90 5,5 C 11,2 C
24.04.2012 09:46 11,4 C 67 % 998,8 hPa 0,0 l/m 9,0 km/h (2 Bft) O-SO 112 5,5 C 11,4 C
24.04.2012 09:51 11,5 C 67 % 998,9 hPa 0,0 l/m 4,7 km/h (1 Bft) O-SO 112 5,6 C 11,5 C
24.04.2012 09:56 11,7 C 67 % 998,9 hPa 0,0 l/m 6,5 km/h (2 Bft) O-SO 112 5,8 C 11,7 C
24.04.2012 10:01 11,8 C 66 % 998,7 hPa 0,0 l/m 8,6 km/h (2 Bft) SO 135 5,7 C 11,8 C
24.04.2012 10:06 11,8 C 66 % 998,6 hPa 0,0 l/m 6,8 km/h (2 Bft) O 90 5,7 C 11,8 C
24.04.2012 10:11 11,9 C 65 % 998,7 hPa 0,0 l/m 3,6 km/h (1 Bft) S-SO 157 5,5 C 11,9 C
24.04.2012 10:16 12,1 C 65 % 998,9 hPa 0,0 l/m 7,6 km/h (2 Bft) SO 135 5,7 C 12,1 C
24.04.2012 10:21 12,3 C 64 % 998,8 hPa 0,0 l/m 7,6 km/h (2 Bft) SO 135 5,7 C 12,3 C
24.04.2012 10:26 12,6 C 64 % 998,8 hPa 0,0 l/m 5,0 km/h (1 Bft) S-SO 157 6,0 C 12,6 C
24.04.2012 10:31 12,8 C 63 % 998,8 hPa 0,0 l/m 13,7 km/h (3 Bft) SO 135 5,9 C 12,8 C
24.04.2012 10:36 12,9 C 62 % 998,7 hPa 0,0 l/m 0,0 km/h (0 Bft) SO 135 5,8 C 12,9 C
24.04.2012 10:41 13,1 C 62 % 998,7 hPa 0,0 l/m 5,4 km/h (1 Bft) S 180 6,0 C 13,1 C
24.04.2012 10:46 13,3 C 61 % 998,8 hPa 0,0 l/m 4,7 km/h (1 Bft) S-SW 202 5,9 C 13,3 C
24.04.2012 10:51 13,5 C 62 % 998,9 hPa 0,0 l/m 3,2 km/h (1 Bft) W-SW 247 6,4 C 13,5 C
24.04.2012 10:56 13,6 C 62 % 998,9 hPa 0,0 l/m 13,3 km/h (3 Bft) S-SW 202 6,5 C 13,6 C
24.04.2012 11:01 13,8 C 61 % 998,8 hPa 0,0 l/m 11,2 km/h (2 Bft) S-SW 202 6,4 C 13,8 C
24.04.2012 11:06 13,9 C 61 % 998,6 hPa 0,0 l/m 4,0 km/h (1 Bft) S-SW 202 6,5 C 13,9 C
24.04.2012 11:11 13,9 C 61 % 998,6 hPa 0,0 l/m 2,5 km/h (1 Bft) S-SO 157 6,5 C 13,9 C
24.04.2012 11:16 14,1 C 60 % 998,7 hPa 0,0 l/m 4,7 km/h (1 Bft) S-SW 202 6,5 C 14,1 C
24.04.2012 11:21 14,3 C 59 % 998,8 hPa 0,0 l/m 13,7 km/h (3 Bft) S-SW 202 6,4 C 14,3 C
24.04.2012 11:26 14,6 C 59 % 998,7 hPa 0,0 l/m 13,0 km/h (3 Bft) SW 225 6,7 C 14,6 C
24.04.2012 11:31 14,9 C 58 % 998,9 hPa 0,0 l/m 7,9 km/h (2 Bft) S-SW 202 6,7 C 14,9 C
24.04.2012 11:36 14,9 C 57 % 998,9 hPa 0,0 l/m 12,2 km/h (2 Bft) W-SW 247 6,5 C 14,9 C
24.04.2012 11:41 14,9 C 56 % 998,7 hPa 0,0 l/m 11,2 km/h (2 Bft) W-SW 247 6,2 C 14,9 C
24.04.2012 11:46 14,9 C 56 % 998,7 hPa 0,0 l/m 8,3 km/h (2 Bft) SW 225 6,2 C 14,9 C
24.04.2012 11:51 14,9 C 56 % 998,6 hPa 0,0 l/m 8,6 km/h (2 Bft) S-SW 202 6,2 C 14,9 C
24.04.2012 11:56 15,0 C 55 % 998,6 hPa 0,0 l/m 5,8 km/h (2 Bft) S-SW 202 6,0 C 15,0 C
24.04.2012 12:01 15,1 C 55 % 998,6 hPa 0,0 l/m 11,9 km/h (2 Bft) S-SW 202 6,1 C 15,1 C
24.04.2012 12:06 15,3 C 55 % 998,5 hPa 0,0 l/m 7,9 km/h (2 Bft) S 180 6,3 C 15,3 C
24.04.2012 12:11 15,4 C 54 % 998,6 hPa 0,0 l/m 11,2 km/h (2 Bft) S-SO 157 6,1 C 15,4 C
24.04.2012 12:16 15,6 C 53 % 998,6 hPa 0,0 l/m 13,0 km/h (3 Bft) W-SW 247 6,1 C 15,6 C
24.04.2012 12:21 15,8 C 53 % 998,7 hPa 0,0 l/m 4,3 km/h (1 Bft) S-SW 202 6,2 C 15,8 C
24.04.2012 12:26 15,9 C 53 % 998,7 hPa 0,0 l/m 2,2 km/h (1 Bft) S-SO 157 6,3 C 15,9 C
24.04.2012 12:31 16,2 C 52 % 998,7 hPa 0,0 l/m 8,3 km/h (2 Bft) S-SO 157 6,3 C 16,2 C
24.04.2012 12:36 16,4 C 51 % 998,7 hPa 0,0 l/m 15,1 km/h (3 Bft) SW 225 6,2 C 16,4 C
24.04.2012 12:41 16,4 C 51 % 998,7 hPa 0,0 l/m 11,5 km/h (2 Bft) SW 225 6,2 C 16,4 C
24.04.2012 12:46 16,2 C 51 % 998,6 hPa 0,0 l/m 5,4 km/h (1 Bft) S-SW 202 6,1 C 16,2 C
24.04.2012 12:51 16,1 C 51 % 998,6 hPa 0,0 l/m 5,4 km/h (1 Bft) SW 225 6,0 C 16,1 C
24.04.2012 12:56 16,1 C 52 % 998,5 hPa 0,0 l/m 8,6 km/h (2 Bft) S 180 6,2 C 16,1 C
24.04.2012 13:01 16,1 C 52 % 998,4 hPa 0,0 l/m 4,0 km/h (1 Bft) S-SW 202 6,2 C 16,1 C
24.04.2012 13:06 16,1 C 52 % 998,4 hPa 0,0 l/m 3,6 km/h (1 Bft) SO 135 6,2 C 16,1 C
24.04.2012 13:11 16,2 C 52 % 998,5 hPa 0,0 l/m 4,7 km/h (1 Bft) S-SO 157 6,3 C 16,2 C
24.04.2012 13:16 16,4 C 52 % 998,5 hPa 0,0 l/m 0,0 km/h (0 Bft) S 180 6,5 C 16,4 C
24.04.2012 13:21 16,4 C 52 % 998,5 hPa 0,0 l/m 10,1 km/h (2 Bft) S-SW 202 6,5 C 16,4 C
24.04.2012 13:26 16,4 C 52 % 998,5 hPa 0,0 l/m 7,6 km/h (2 Bft) S 180 6,5 C 16,4 C
24.04.2012 13:31 16,4 C 52 % 998,5 hPa 0,0 l/m 9,0 km/h (2 Bft) SO 135 6,5 C 16,4 C
24.04.2012 13:36 16,5 C 51 % 998,6 hPa 0,0 l/m 6,5 km/h (2 Bft) S 180 6,3 C 16,5 C
24.04.2012 13:41 16,5 C 51 % 998,5 hPa 0,0 l/m 5,4 km/h (1 Bft) S 180 6,3 C 16,5 C
24.04.2012 13:46 16,5 C 51 % 998,7 hPa 0,0 l/m 9,0 km/h (2 Bft) SW 225 6,3 C 16,5 C
24.04.2012 13:51 16,4 C 51 % 998,7 hPa 0,0 l/m 9,4 km/h (2 Bft) S 180 6,2 C 16,4 C
24.04.2012 13:56 16,4 C 51 % 998,7 hPa 0,0 l/m 17,3 km/h (3 Bft) S-SW 202 6,2 C 16,4 C
24.04.2012 14:01 16,4 C 51 % 998,7 hPa 0,0 l/m 12,2 km/h (2 Bft) S 180 6,2 C 16,4 C
24.04.2012 14:06 16,3 C 52 % 998,7 hPa 0,0 l/m 5,8 km/h (2 Bft) S 180 6,4 C 16,3 C
24.04.2012 14:11 16,2 C 52 % 998,8 hPa 0,0 l/m 5,0 km/h (1 Bft) S-SO 157 6,3 C 16,2 C
24.04.2012 14:16 16,2 C 52 % 998,8 hPa 0,0 l/m 13,3 km/h (3 Bft) S-SW 202 6,3 C 16,2 C
24.04.2012 14:21 16,1 C 52 % 998,6 hPa 0,0 l/m 6,1 km/h (2 Bft) SW 225 6,2 C 16,1 C
24.04.2012 14:26 16,1 C 52 % 998,8 hPa 0,0 l/m 8,3 km/h (2 Bft) SW 225 6,2 C 16,1 C
24.04.2012 14:31 16,0 C 53 % 998,7 hPa 0,0 l/m 9,0 km/h (2 Bft) W-SW 247 6,4 C 16,0 C
24.04.2012 14:36 15,9 C 53 % 998,7 hPa 0,0 l/m 10,1 km/h (2 Bft) W-SW 247 6,3 C 15,9 C
24.04.2012 14:41 15,8 C 53 % 998,7 hPa 0,0 l/m 13,7 km/h (3 Bft) SW 225 6,2 C 15,8 C
24.04.2012 14:46 15,6 C 53 % 998,7 hPa 0,0 l/m 11,5 km/h (2 Bft) S-SW 202 6,1 C 15,6 C
24.04.2012 14:51 15,6 C 53 % 998,7 hPa 0,0 l/m 4,7 km/h (1 Bft) S-SW 202 6,1 C 15,6 C
24.04.2012 14:56 15,5 C 53 % 998,9 hPa 0,0 l/m 7,6 km/h (2 Bft) S-SO 157 6,0 C 15,5 C
24.04.2012 15:01 15,5 C 54 % 998,9 hPa 0,0 l/m 11,9 km/h (2 Bft) S-SW 202 6,2 C 15,5 C
24.04.2012 15:06 15,5 C 53 % 998,8 hPa 0,0 l/m 13,3 km/h (3 Bft) S-SW 202 6,0 C 15,5 C
24.04.2012 15:11 15,4 C 53 % 998,8 hPa 0,0 l/m 7,9 km/h (2 Bft) SO 135 5,9 C 15,4 C
24.04.2012 15:16 15,4 C 53 % 998,8 hPa 0,0 l/m 3,2 km/h (1 Bft) S-SO 157 5,9 C 15,4 C
24.04.2012 15:21 15,4 C 53 % 998,9 hPa 0,0 l/m 10,4 km/h (2 Bft) S-SO 157 5,9 C 15,4 C
24.04.2012 15:26 15,3 C 53 % 999,0 hPa 0,0 l/m 8,3 km/h (2 Bft) S-SW 202 5,8 C 15,3 C
24.04.2012 15:31 15,3 C 53 % 998,7 hPa 0,0 l/m 11,9 km/h (2 Bft) S 180 5,8 C 15,3 C
24.04.2012 15:36 15,3 C 54 % 998,7 hPa 0,0 l/m 3,2 km/h (1 Bft) S-SW 202 6,0 C 15,3 C
24.04.2012 15:41 15,3 C 54 % 998,7 hPa 0,0 l/m 4,7 km/h (1 Bft) S-SO 157 6,0 C 15,3 C
24.04.2012 15:46 15,4 C 55 % 998,6 hPa 0,0 l/m 7,6 km/h (2 Bft) SO 135 6,4 C 15,4 C
24.04.2012 15:51 15,3 C 54 % 998,4 hPa 0,0 l/m 7,2 km/h (2 Bft) O 90 6,0 C 15,3 C
24.04.2012 15:56 15,2 C 53 % 998,2 hPa 0,0 l/m 9,0 km/h (2 Bft) SO 135 5,7 C 15,2 C
24.04.2012 16:01 14,9 C 53 % 998,1 hPa 0,0 l/m 0,0 km/h (0 Bft) SO 135 5,4 C 14,9 C
24.04.2012 16:06 15,1 C 53 % 998,2 hPa 0,0 l/m 2,5 km/h (1 Bft) O-SO 112 5,6 C 15,1 C
24.04.2012 16:11 15,1 C 53 % 998,2 hPa 0,0 l/m 4,7 km/h (1 Bft) S-SO 157 5,6 C 15,1 C
24.04.2012 16:16 15,3 C 53 % 998,2 hPa 0,0 l/m 3,6 km/h (1 Bft) S-SO 157 5,8 C 15,3 C
24.04.2012 16:21 15,3 C 53 % 998,2 hPa 0,0 l/m 5,0 km/h (1 Bft) SO 135 5,8 C 15,3 C
24.04.2012 16:26 15,4 C 53 % 998,2 hPa 0,0 l/m 5,8 km/h (2 Bft) SO 135 5,9 C 15,4 C
24.04.2012 16:31 15,5 C 53 % 998,2 hPa 0,0 l/m 2,2 km/h (1 Bft) S-SO 157 6,0 C 15,5 C
24.04.2012 16:36 15,6 C 52 % 998,2 hPa 0,0 l/m 2,5 km/h (1 Bft) O-SO 112 5,8 C 15,6 C
24.04.2012 16:41 15,6 C 52 % 998,2 hPa 0,0 l/m 0,0 km/h (0 Bft) S-SO 157 5,8 C 15,6 C
24.04.2012 16:46 15,6 C 52 % 998,2 hPa 0,0 l/m 5,0 km/h (1 Bft) S-SW 202 5,8 C 15,6 C
24.04.2012 16:51 15,7 C 52 % 998,2 hPa 0,0 l/m 1,8 km/h (1 Bft) SW 225 5,9 C 15,7 C
24.04.2012 16:56 15,6 C 53 % 998,3 hPa 0,0 l/m 6,5 km/h (2 Bft) S-SW 202 6,1 C 15,6 C
24.04.2012 17:01 15,6 C 53 % 998,3 hPa 0,0 l/m 6,1 km/h (2 Bft) S-SW 202 6,1 C 15,6 C
24.04.2012 17:06 15,5 C 52 % 998,3 hPa 0,0 l/m 3,6 km/h (1 Bft) S-SW 202 5,7 C 15,5 C
24.04.2012 17:11 15,4 C 53 % 998,4 hPa 0,0 l/m 8,3 km/h (2 Bft) S 180 5,9 C 15,4 C
24.04.2012 17:16 15,4 C 53 % 998,3 hPa 0,0 l/m 9,4 km/h (2 Bft) S 180 5,9 C 15,4 C
24.04.2012 17:21 15,3 C 52 % 998,3 hPa 0,0 l/m 13,0 km/h (3 Bft) S-SO 157 5,5 C 15,3 C
24.04.2012 17:26 15,3 C 52 % 998,4 hPa 0,0 l/m 9,7 km/h (2 Bft) S-SO 157 5,5 C 15,3 C
24.04.2012 17:31 15,2 C 52 % 998,5 hPa 0,0 l/m 6,5 km/h (2 Bft) S-SW 202 5,4 C 15,2 C
24.04.2012 17:36 15,1 C 52 % 998,5 hPa 0,0 l/m 6,5 km/h (2 Bft) S 180 5,3 C 15,1 C
24.04.2012 17:41 15,1 C 52 % 998,5 hPa 0,0 l/m 13,7 km/h (3 Bft) S-SW 202 5,3 C 15,1 C
24.04.2012 17:46 15,1 C 52 % 998,5 hPa 0,0 l/m 3,2 km/h (1 Bft) S 180 5,3 C 15,1 C
24.04.2012 17:51 15,1 C 53 % 998,3 hPa 0,0 l/m 5,8 km/h (2 Bft) SW 225 5,6 C 15,1 C
24.04.2012 17:56 15,0 C 53 % 998,3 hPa 0,0 l/m 9,4 km/h (2 Bft) S-SW 202 5,5 C 15,0 C
24.04.2012 18:01 14,9 C 53 % 998,2 hPa 0,0 l/m 4,7 km/h (1 Bft) SO 135 5,4 C 14,9 C
24.04.2012 18:06 14,9 C 54 % 998,3 hPa 0,0 l/m 7,2 km/h (2 Bft) S 180 5,7 C 14,9 C
24.04.2012 18:11 14,9 C 54 % 998,2 hPa 0,0 l/m 3,2 km/h (1 Bft) SO 135 5,7 C 14,9 C
24.04.2012 18:16 14,9 C 54 % 998,2 hPa 0,0 l/m 4,3 km/h (1 Bft) S-SW 202 5,7 C 14,9 C
24.04.2012 18:21 14,9 C 54 % 998,3 hPa 0,0 l/m 3,2 km/h (1 Bft) S-SO 157 5,7 C 14,9 C
24.04.2012 18:26 14,9 C 55 % 998,6 hPa 0,0 l/m 4,3 km/h (1 Bft) SO 135 5,9 C 14,9 C
24.04.2012 18:31 14,9 C 55 % 998,4 hPa 0,0 l/m 4,0 km/h (1 Bft) S 180 5,9 C 14,9 C
24.04.2012 18:36 14,9 C 55 % 998,4 hPa 0,5 l/m 5,0 km/h (1 Bft) S-SW 202 5,9 C 14,9 C
24.04.2012 18:41 14,8 C 55 % 998,5 hPa 0,0 l/m 3,2 km/h (1 Bft) SO 135 5,8 C 14,8 C
24.04.2012 18:46 14,7 C 56 % 998,5 hPa 0,0 l/m 2,2 km/h (1 Bft) S 180 6,0 C 14,7 C
24.04.2012 18:51 14,7 C 56 % 998,7 hPa 0,0 l/m 0,0 km/h (0 Bft) SO 135 6,0 C 14,7 C
24.04.2012 18:56 14,6 C 57 % 998,6 hPa 0,0 l/m 6,5 km/h (2 Bft) S 180 6,2 C 14,6 C
24.04.2012 19:01 14,5 C 57 % 998,7 hPa 0,0 l/m 5,8 km/h (2 Bft) S 180 6,1 C 14,5 C
24.04.2012 19:06 14,4 C 58 % 998,7 hPa 0,0 l/m 2,2 km/h (1 Bft) S-SO 157 6,2 C 14,4 C
24.04.2012 19:11 14,4 C 58 % 998,7 hPa 0,0 l/m 4,0 km/h (1 Bft) S 180 6,2 C 14,4 C
24.04.2012 19:16 14,4 C 58 % 998,7 hPa 0,0 l/m 2,2 km/h (1 Bft) S 180 6,2 C 14,4 C
24.04.2012 19:21 14,3 C 58 % 998,5 hPa 0,0 l/m 3,6 km/h (1 Bft) S 180 6,2 C 14,3 C
24.04.2012 19:26 14,3 C 59 % 998,9 hPa 0,0 l/m 1,4 km/h (1 Bft) SO 135 6,4 C 14,3 C
24.04.2012 19:31 14,3 C 59 % 998,6 hPa 0,0 l/m 2,9 km/h (1 Bft) S-SO 157 6,4 C 14,3 C
24.04.2012 19:36 14,2 C 59 % 998,6 hPa 0,0 l/m 2,5 km/h (1 Bft) S-SO 157 6,3 C 14,2 C
24.04.2012 19:41 14,1 C 59 % 998,7 hPa 0,0 l/m 2,2 km/h (1 Bft) S 180 6,2 C 14,1 C
24.04.2012 19:46 14,1 C 59 % 998,6 hPa 0,0 l/m 2,9 km/h (1 Bft) S-SO 157 6,2 C 14,1 C
24.04.2012 19:51 14,1 C 59 % 998,7 hPa 0,0 l/m 2,2 km/h (1 Bft) S-SO 157 6,2 C 14,1 C
24.04.2012 19:56 14,0 C 59 % 998,6 hPa 0,0 l/m 0,0 km/h (0 Bft) S-SO 157 6,1 C 14,0 C
24.04.2012 20:01 13,9 C 59 % 998,4 hPa 0,0 l/m 3,2 km/h (1 Bft) S-SO 157 6,0 C 13,9 C
24.04.2012 20:06 13,8 C 59 % 998,2 hPa 0,0 l/m 0,0 km/h (0 Bft) S-SO 157 5,9 C 13,8 C
24.04.2012 20:11 13,8 C 60 % 998,3 hPa 0,0 l/m 1,4 km/h (1 Bft) S 180 6,2 C 13,8 C
24.04.2012 20:16 13,6 C 60 % 998,2 hPa 0,0 l/m 1,1 km/h (1 Bft) S 180 6,0 C 13,6 C
24.04.2012 20:21 13,6 C 60 % 998,4 hPa 0,0 l/m 0,0 km/h (0 Bft) O-SO 112 6,0 C 13,6 C
24.04.2012 20:26 13,6 C 60 % 998,6 hPa 0,0 l/m 0,0 km/h (0 Bft) SO 135 6,0 C 13,6 C
24.04.2012 20:31 13,5 C 60 % 998,6 hPa 0,0 l/m 1,1 km/h (1 Bft) SO 135 5,9 C 13,5 C
24.04.2012 20:36 13,4 C 60 % 998,7 hPa 0,0 l/m 1,1 km/h (1 Bft) S-SO 157 5,8 C 13,4 C
24.04.2012 20:41 13,3 C 60 % 998,6 hPa 0,0 l/m 1,4 km/h (1 Bft) S-SO 157 5,7 C 13,3 C
24.04.2012 20:46 13,3 C 60 % 998,6 hPa 0,0 l/m 1,4 km/h (1 Bft) S-SO 157 5,7 C 13,3 C
24.04.2012 20:51 13,3 C 60 % 998,6 hPa 0,0 l/m 0,0 km/h (0 Bft) S-SO 157 5,7 C 13,3 C
24.04.2012 20:56 13,2 C 60 % 998,4 hPa 0,0 l/m 1,4 km/h (1 Bft) SO 135 5,6 C 13,2 C
24.04.2012 21:01 13,1 C 60 % 998,4 hPa 0,0 l/m 1,4 km/h (1 Bft) SO 135 5,5 C 13,1 C
24.04.2012 21:06 13,0 C 61 % 998,6 hPa 0,0 l/m 0,0 km/h (0 Bft) S-SO 157 5,7 C 13,0 C
24.04.2012 21:11 12,9 C 61 % 998,4 hPa 0,0 l/m 0,0 km/h (0 Bft) S-SO 157 5,6 C 12,9 C
24.04.2012 21:16 12,9 C 61 % 998,4 hPa 0,0 l/m 0,0 km/h (0 Bft) S-SO 157 5,6 C 12,9 C
24.04.2012 21:21 12,9 C 61 % 998,6 hPa 0,0 l/m 1,1 km/h (1 Bft) SO 135 5,6 C 12,9 C
24.04.2012 21:26 12,9 C 61 % 998,6 hPa 0,0 l/m 0,0 km/h (0 Bft) SO 135 5,6 C 12,9 C
24.04.2012 21:31 12,8 C 61 % 998,5 hPa 0,0 l/m 4,0 km/h (1 Bft) SO 135 5,5 C 12,8 C
24.04.2012 21:36 12,7 C 61 % 998,5 hPa 0,0 l/m 0,0 km/h (0 Bft) SO 135 5,4 C 12,7 C
24.04.2012 21:41 12,6 C 61 % 998,6 hPa 0,0 l/m 1,4 km/h (1 Bft) O 90 5,3 C 12,6 C
24.04.2012 21:46 12,5 C 62 % 998,5 hPa 0,0 l/m 0,0 km/h (0 Bft) O-SO 112 5,4 C 12,5 C
24.04.2012 21:51 12,3 C 63 % 998,6 hPa 0,0 l/m 0,0 km/h (0 Bft) SO 135 5,5 C 12,3 C
24.04.2012 21:56 12,2 C 63 % 998,5 hPa 0,0 l/m 2,2 km/h (1 Bft) SO 135 5,4 C 12,2 C
24.04.2012 22:01 12,1 C 64 % 998,6 hPa 0,0 l/m 0,0 km/h (0 Bft) SO 135 5,5 C 12,1 C
24.04.2012 22:06 12,1 C 64 % 998,4 hPa 0,0 l/m 0,0 km/h (0 Bft) O-SO 112 5,5 C 12,1 C
24.04.2012 22:11 12,0 C 64 % 998,5 hPa 0,0 l/m 1,1 km/h (1 Bft) SO 135 5,4 C 12,0 C
24.04.2012 22:16 11,9 C 65 % 998,4 hPa 0,0 l/m 4,0 km/h (1 Bft) O-SO 112 5,5 C 11,9 C
24.04.2012 22:21 11,9 C 65 % 998,4 hPa 0,0 l/m 3,2 km/h (1 Bft) O-SO 112 5,5 C 11,9 C
24.04.2012 22:26 11,8 C 65 % 998,5 hPa 0,0 l/m 1,8 km/h (1 Bft) SO 135 5,4 C 11,8 C
24.04.2012 22:31 11,8 C 65 % 998,4 hPa 0,0 l/m 0,0 km/h (0 Bft) SO 135 5,4 C 11,8 C
24.04.2012 22:36 11,9 C 65 % 998,6 hPa 0,0 l/m 0,0 km/h (0 Bft) W-SW 247 5,5 C 11,9 C
24.04.2012 22:41 11,9 C 65 % 998,6 hPa 0,0 l/m 0,0 km/h (0 Bft) S-SW 202 5,5 C 11,9 C
24.04.2012 22:46 11,9 C 65 % 998,5 hPa 0,0 l/m 2,5 km/h (1 Bft) S-SW 202 5,5 C 11,9 C
24.04.2012 22:51 11,9 C 65 % 998,6 hPa 0,0 l/m 2,9 km/h (1 Bft) W-SW 247 5,5 C 11,9 C
24.04.2012 22:56 12,0 C 65 % 998,7 hPa 0,0 l/m 0,0 km/h (0 Bft) SW 225 5,6 C 12,0 C
24.04.2012 23:01 12,0 C 65 % 998,5 hPa 0,0 l/m 0,0 km/h (0 Bft) S-SW 202 5,6 C 12,0 C
24.04.2012 23:06 11,9 C 65 % 998,6 hPa 0,0 l/m 0,0 km/h (0 Bft) S 180 5,5 C 11,9 C
24.04.2012 23:11 12,0 C 65 % 998,7 hPa 0,0 l/m 0,0 km/h (0 Bft) S-SO 157 5,6 C 12,0 C
24.04.2012 23:16 11,9 C 65 % 998,6 hPa 0,0 l/m 2,5 km/h (1 Bft) S 180 5,5 C 11,9 C
24.04.2012 23:21 11,9 C 65 % 998,6 hPa 0,0 l/m 2,2 km/h (1 Bft) S 180 5,5 C 11,9 C
24.04.2012 23:26 11,9 C 65 % 998,4 hPa 0,0 l/m 3,6 km/h (1 Bft) S 180 5,5 C 11,9 C
24.04.2012 23:31 11,9 C 65 % 998,6 hPa 0,0 l/m 0,0 km/h (0 Bft) S-SO 157 5,5 C 11,9 C
24.04.2012 23:36 11,9 C 65 % 998,7 hPa 0,0 l/m 2,2 km/h (1 Bft) S 180 5,5 C 11,9 C
24.04.2012 23:41 11,9 C 65 % 998,5 hPa 0,0 l/m 3,2 km/h (1 Bft) S-SO 157 5,5 C 11,9 C
24.04.2012 23:46 11,8 C 66 % 998,6 hPa 0,0 l/m 0,0 km/h (0 Bft) S-SO 157 5,7 C 11,8 C
24.04.2012 23:51 11,8 C 66 % 998,7 hPa 0,0 l/m 1,1 km/h (1 Bft) S-SO 157 5,7 C 11,8 C
24.04.2012 23:56 11,8 C 66 % 998,5 hPa 0,0 l/m 1,4 km/h (1 Bft) S 180 5,7 C 11,8 C
_ Min-Zeit 03:11 12:36 16:01 - 03:01 - - 01:36 06:56
Minimum _ 6,1 C 51 % 998,1 hPa - 0,0 km/h (0 Bft) - - 0,9 C 4,1 C
_ Max-Zeit 13:36 06:11 00:26 18:36 13:56 - - 11:31 13:36
Maximum _ 16,5 C 78 % 1003,0 hPa 0,5 l/m 17,3 km/h
S-SW (3 Bft)
- - 6,7 C 16,5 C
Durchschnitt _ 11,4 C 64 % 999,5 hPa #0,5 l/m 5,2 km/h (1 Bft) O - 4,6 C 11,1 C
(c) by David Heller